Home > Weather > Astana > Past weeks

Flag for Kazakhstan Past Weather in Astana, Kazakhstan — Yesterday and Last 2 Weeks

Now
57 °F

Clear.


Feels Like: 55 °F
Forecast: 55 / 68 °F
Wind: 10 mph from West

Location: Astana

Current Time: Jul 2, 2016 at 1:00:34 AM

Latest Report: Jul 2, 2016 at 12:30 AM


Visibility: 10 mi

Pressure: 29.47 "Hg

Humidity: 94%

Dew Point: 55 °F

Location of AstanaLocation

Past Weather in Astana — Graph

°F

Astana Temperature Yesterday

Maximum temperature yesterday: 70 °F (at 12:00 PM)
Minimum temperature yesterday: 54 °F (at 5:30 AM)
Average temperature yesterday: 62 °F

High & Low Weather Summary for the Past Weeks

 TemperatureHumidityPressure
High81 °F (Jun 24, 3:30 PM)100% (Jun 27, 5:00 AM)30.04 "Hg (Jun 27, 5:00 AM)
Low52 °F (Jun 20, 5:30 AM)26% (Jun 20, 7:00 PM)29.45 "Hg (Jun 29, 8:30 AM)
Average63 °F67%29.79 "Hg
* Reported Jun 17 12:00 AM — Jul 2 12:00 AM, Astana, Weather by CustomWeather, © 2016

Note: Actual official high and low records may vary slightly from our data, if they occured in-between our weather recording intervals... More about our weather records

Advertising

Astana Weather History for the Previous 24 Hours

Scroll right to see more
 ConditionsComfort  
Time TempWeatherWind HumidityBarometerVisibility
12:00 AM
Sat, Jul 2
59 °FClear.8 mph82%29.47 "Hg10 mi
11:30 PM
Fri, Jul 1
59 °FClear.8 mph82%29.47 "Hg10 mi
11:00 PM61 °FPassing clouds.10 mph83%29.50 "HgN/A
10:30 PM63 °FBroken clouds.10 mph77%29.50 "HgN/A
10:00 PM63 °FBroken clouds.6 mph73%29.50 "HgN/A
9:30 PM63 °FBroken clouds.8 mph73%29.50 "HgN/A
9:00 PM63 °FBroken clouds.8 mph77%29.50 "HgN/A
8:30 PM63 °FBroken clouds.8 mph77%29.50 "HgN/A
8:00 PM63 °FBroken clouds.8 mph73%29.50 "HgN/A
7:30 PM64 °FBroken clouds.8 mph68%29.50 "HgN/A
7:00 PM64 °FBroken clouds.8 mph73%29.50 "HgN/A
6:30 PM63 °FBroken clouds.10 mph77%29.50 "HgN/A
6:00 PM66 °FBroken clouds.8 mph68%29.50 "HgN/A
5:30 PM64 °FBroken clouds.17 mph73%29.50 "HgN/A
5:00 PM70 °FBroken clouds.13 mph53%29.50 "HgN/A
4:30 PM68 °FBroken clouds.8 mph60%29.50 "HgN/A
4:00 PM66 °FBroken clouds.10 mph68%29.50 "HgN/A
3:30 PM63 °FBroken clouds.10 mph83%29.50 "HgN/A
3:00 PM68 °FSprinkles. Broken clouds.17 mph49%29.50 "HgN/A
2:30 PM68 °FBroken clouds.15 mph56%29.50 "HgN/A
2:00 PM70 °FPartly sunny.15 mph50%29.50 "HgN/A
1:30 PM64 °FBroken clouds.13 mph68%29.53 "HgN/A
1:00 PM64 °FSprinkles. Broken clouds.13 mph73%29.53 "HgN/A
12:30 PM66 °FBroken clouds.15 mph52%29.53 "HgN/A
12:00 PM70 °FBroken clouds.10 mph50%29.53 "HgN/A
11:30 AM64 °FBroken clouds.10 mph64%29.53 "HgN/A
11:00 AM64 °FBroken clouds.10 mph60%29.56 "HgN/A
10:30 AM66 °FBroken clouds.13 mph60%29.56 "HgN/A
10:00 AM64 °FBroken clouds.13 mph60%29.56 "HgN/A
9:30 AM61 °FBroken clouds.8 mph68%29.56 "HgN/A
9:00 AM61 °FBroken clouds.10 mph68%29.56 "HgN/A
8:30 AM61 °FPartly sunny.10 mph68%29.56 "HgN/A
8:00 AM59 °FPartly sunny.8 mph77%29.56 "HgN/A
7:30 AM59 °FPartly sunny.10 mph72%29.56 "HgN/A
7:00 AM57 °FSunny.8 mph77%29.56 "Hg10 mi
6:30 AM55 °FSunny.8 mph82%29.56 "Hg10 mi
6:00 AM54 °FClear.8 mph82%29.56 "Hg10 mi
5:30 AM54 °FClear.8 mph82%29.56 "Hg10 mi
5:00 AM55 °FClear.8 mph77%29.59 "Hg10 mi
4:30 AM55 °FClear.8 mph82%29.59 "Hg10 mi
4:00 AM57 °FClear.8 mph77%29.59 "Hg10 mi
3:30 AM57 °FClear.8 mph82%29.59 "Hg10 mi
3:00 AM57 °FClear.8 mph82%29.59 "Hg10 mi
2:30 AM57 °FClear.8 mph77%29.59 "Hg10 mi
2:00 AM57 °FClear.8 mph82%29.62 "Hg10 mi
1:30 AM59 °FClear.8 mph77%29.62 "Hg10 mi
1:00 AM59 °FClear.8 mph77%29.62 "Hg10 mi
Weather by CustomWeather, © 2016

See weather overviewHow to use our weather pages